Location: Newark
(3.0500°N, 36.0167°E)
Time: 12:44:00
(UTC+00:00)

Transit 2A Rocket - Pass Details

Date: 21 August 2019
Orbit: 592 x 911 km, 66.7° (Epoch: 22 September)

Event Time Altitude Azimuth Distance (km) Brightness Sun altitude
Rises 15:02:41 0° 187° (S) 3,527 8.4 9.5°
Reaches altitude 10° 15:05:19 10° 181° (S) 2,593 7.7 8.9°
Maximum altitude 15:11:06 46° 110° (ESE) 1,196 5.7 7.5°
Drops below altitude 10° 15:16:44 10° 38° (NE) 2,526 7.5 6.1°
Sets 15:19:15 0° 32° (NNE) 3,428 8.2 5.5°
